| time (UTC) | temp F | wind direction | speed MPH | gust MPH | rain 1hr in | rain 24hr in | rain mn in | humidity % | barometer mb |
| 20260506113021 | 55 | 307 | 0.0 | 2.0 | 0.00 | 0.07 | 0.02 | 87 | 1004.3 |
| 20260506111520 | 55 | 308 | 0.0 | 2.0 | 0.01 | 0.07 | 0.02 | 87 | 1004.5 |
| 20260506110019 | 55 | 308 | 0.0 | 2.0 | 0.01 | 0.07 | 0.02 | 86 | 1004.3 |
| 20260506104519 | 55 | 307 | 0.0 | 2.0 | 0.01 | 0.07 | 0.02 | 86 | 1004.3 |
| 20260506103025 | 55 | 308 | 0.0 | 3.0 | 0.01 | 0.07 | 0.02 | 86 | 1004.3 |
| 20260506101516 | 54 | 308 | 0.0 | 1.0 | 0.00 | 0.06 | 0.01 | 85 | 1003.9 |
| 20260506100028 | 55 | 307 | 0.0 | 2.0 | 0.00 | 0.06 | 0.01 | 84 | 1003.8 |
| 20260506094517 | 55 | 308 | 0.0 | 2.0 | 0.01 | 0.06 | 0.01 | 84 | 1003.9 |
| 20260506093013 | 55 | 308 | 0.0 | 1.0 | 0.01 | 0.06 | 0.01 | 83 | 1003.9 |
| 20260506091511 | 55 | 308 | 0.0 | 1.0 | 0.01 | 0.06 | 0.01 | 83 | 1004.0 |
| 20260506090011 | 55 | 308 | 0.0 | 2.0 | 0.01 | 0.06 | 0.01 | 83 | 1004.2 |
| 20260506084508 | 55 | 308 | 0.0 | 2.0 | 0.00 | 0.05 | 0.00 | 82 | 1004.4 |
| 20260506083008 | 55 | 308 | 0.0 | 5.0 | 0.00 | 0.05 | 0.00 | 81 | 1004.6 |
| 20260506081509 | 55 | 309 | 2.0 | 5.0 | 0.00 | 0.05 | 0.00 | 80 | 1004.6 |
| 20260506073100 | 56 | 17 | 0.0 | 4.0 | 0.00 | 0.05 | 0.00 | 79 | 1004.4 |
| 20260506071559 | 57 | 33 | 2.0 | 4.0 | 0.00 | 0.05 | 0.00 | 79 | 1004.4 |
| 20260506070124 | 57 | 13 | 2.0 | 5.0 | 0.00 | 0.05 | 0.00 | 79 | 1004.3 |
| 20260506061550 | 57 | 5 | 2.0 | 3.0 | 0.00 | 0.05 | 0.00 | 79 | 1005.0 |
| 20260506044540 | 58 | 5 | 0.0 | 0.0 | 0.00 | 0.05 | 0.00 | 77 | 1006.1 |
| 20260506043038 | 58 | 5 | 0.0 | 1.0 | 0.00 | 0.05 | 0.00 | 76 | 1006.1 |
| 20260506041539 | 58 | 5 | 0.0 | 2.0 | 0.00 | 0.05 | 0.00 | 76 | 1006.1 |
| 20260506040034 | 58 | 5 | 0.0 | 1.0 | 0.00 | 0.05 | 0.00 | 75 | 1006.3 |
| 20260506034532 | 58 | 5 | 0.0 | 4.0 | 0.00 | 0.05 | 0.05 | 74 | 1006.4 |
| 20260506033032 | 59 | 9 | 2.0 | 4.0 | 0.00 | 0.05 | 0.05 | 74 | 1006.8 |
| 20260506031537 | 59 | 9 | 0.0 | 5.0 | 0.00 | 0.05 | 0.05 | 74 | 1006.6 |
| 20260506030029 | 59 | 20 | 2.0 | 6.0 | 0.00 | 0.05 | 0.05 | 74 | 1006.5 |
| 20260506024537 | 60 | 338 | 3.0 | 12.0 | 0.00 | 0.05 | 0.05 | 75 | 1006.5 |
| 20260506023022 | 61 | 10 | 10.0 | 17.0 | 0.00 | 0.05 | 0.05 | 77 | 1006.5 |
| 20260506021520 | 63 | 351 | 1.0 | 4.0 | 0.00 | 0.05 | 0.05 | 80 | 1006.1 |
| 20260506020017 | 63 | 351 | 1.0 | 6.0 | 0.00 | 0.05 | 0.05 | 81 | 1006.0 |
| 20260506014516 | 63 | 360 | 3.0 | 8.0 | 0.00 | 0.05 | 0.05 | 82 | 1005.8 |
| 20260506013014 | 63 | 11 | 2.0 | 6.0 | 0.00 | 0.05 | 0.05 | 83 | 1005.7 |
| 20260506011525 | 63 | 5 | 2.0 | 13.0 | 0.00 | 0.05 | 0.05 | 84 | 1005.2 |
| 20260506010011 | 63 | 335 | 3.0 | 5.0 | 0.00 | 0.05 | 0.05 | 85 | 1005.2 |
| 20260506004509 | 63 | 172 | 6.0 | 9.0 | 0.00 | 0.05 | 0.05 | 84 | 1004.4 |
| 20260506003012 | 64 | 202 | 3.0 | 6.0 | 0.00 | 0.05 | 0.05 | 83 | 1004.3 |
| 20260506001507 | 64 | 202 | 2.0 | 4.0 | 0.00 | 0.05 | 0.05 | 82 | 1004.2 |
| 20260506000006 | 65 | 202 | 2.0 | 4.0 | 0.00 | 0.05 | 0.05 | 81 | 1004.0 |
| 20260505234508 | 66 | 202 | 1.0 | 3.0 | 0.00 | 0.05 | 0.05 | 80 | 1004.1 |
| 20260505233004 | 66 | 202 | 0.0 | 2.0 | 0.00 | 0.05 | 0.05 | 78 | 1004.1 |
| 20260505231506 | 66 | 202 | 1.0 | 3.0 | 0.00 | 0.05 | 0.05 | 78 | 1004.0 |
| 20260505230007 | 67 | 202 | 1.0 | 4.0 | 0.00 | 0.05 | 0.05 | 76 | 1004.0 |
| 20260505224502 | 67 | 202 | 0.0 | 2.0 | 0.00 | 0.05 | 0.05 | 76 | 1003.9 |
| 20260505223001 | 67 | 202 | 2.0 | 3.0 | 0.00 | 0.05 | 0.05 | 75 | 1003.9 |
| 20260505221502 | 67 | 202 | 1.0 | 7.0 | 0.00 | 0.05 | 0.05 | 76 | 1004.0 |
| 20260505220100 | 67 | 220 | 4.0 | 8.0 | 0.00 | 0.05 | 0.05 | 75 | 1003.8 |
| 20260505214600 | 67 | 180 | 2.0 | 7.0 | 0.00 | 0.05 | 0.05 | 75 | 1003.4 |
| 20260505213100 | 67 | 161 | 3.0 | 5.0 | 0.00 | 0.05 | 0.05 | 74 | 1003.1 |
| 20260505211559 | 67 | 171 | 3.0 | 6.0 | 0.00 | 0.05 | 0.05 | 74 | 1003.2 |
| 20260505210058 | 66 | 233 | 2.0 | 7.0 | 0.00 | 0.05 | 0.05 | 75 | 1003.1 |
| 20260505204602 | 66 | 217 | 2.0 | 5.0 | 0.01 | 0.05 | 0.05 | 75 | 1003.3 |
| 20260505203103 | 65 | 217 | 1.0 | 5.0 | 0.02 | 0.05 | 0.05 | 75 | 1003.6 |
| 20260505201556 | 65 | 216 | 2.0 | 5.0 | 0.02 | 0.05 | 0.05 | 74 | 1003.6 |
| 20260505200055 | 66 | 200 | 3.0 | 9.0 | 0.02 | 0.05 | 0.05 | 72 | 1003.5 |
| 20260505194611 | 69 | 280 | 12.0 | 47.0 | 0.01 | 0.04 | 0.04 | 64 | 1004.2 |
| 20260505193053 | 78 | 232 | 14.0 | 29.0 | 0.00 | 0.03 | 0.03 | 34 | 1001.8 |
| 20260505191605 | 79 | 209 | 17.0 | 28.0 | 0.00 | 0.03 | 0.03 | 32 | 1001.3 |
| 20260505190051 | 78 | 245 | 6.0 | 21.0 | 0.00 | 0.03 | 0.03 | 36 | 1001.4 |
| 20260505184545 | 78 | 210 | 10.0 | 21.0 | 0.01 | 0.03 | 0.03 | 39 | 1001.8 |
| 20260505183041 | 77 | 198 | 5.0 | 14.0 | 0.01 | 0.03 | 0.03 | 45 | 1002.0 |
| 20260505181539 | 75 | 219 | 7.0 | 11.0 | 0.01 | 0.03 | 0.03 | 53 | 1002.4 |
| 20260505180045 | 74 | 227 | 7.0 | 21.0 | 0.01 | 0.03 | 0.03 | 51 | 1003.0 |
| 20260505174535 | 76 | 248 | 13.0 | 23.0 | 0.00 | 0.02 | 0.02 | 43 | 1003.0 |
| 20260505173034 | 76 | 247 | 13.0 | 19.0 | 0.00 | 0.02 | 0.02 | 43 | 1003.2 |
| 20260505171531 | 76 | 246 | 10.0 | 17.0 | 0.00 | 0.02 | 0.02 | 43 | 1003.3 |
| 20260505170032 | 76 | 238 | 9.0 | 23.0 | 0.00 | 0.02 | 0.02 | 43 | 1002.8 |
| 20260505164529 | 76 | 234 | 9.0 | 24.0 | 0.00 | 0.02 | 0.02 | 43 | 1002.7 |
| 20260505163028 | 76 | 206 | 9.0 | 19.0 | 0.00 | 0.02 | 0.02 | 43 | 1002.9 |
| 20260505161528 | 76 | 183 | 13.0 | 21.0 | 0.00 | 0.02 | 0.02 | 41 | 1003.3 |
| 20260505153021 | 76 | 213 | 11.0 | 25.0 | 0.00 | 0.02 | 0.02 | 42 | 1003.4 |
| 20260505151520 | 76 | 207 | 7.0 | 24.0 | 0.00 | 0.02 | 0.02 | 44 | 1003.5 |
| 20260505124555 | 65 | 232 | 5.0 | 12.0 | 0.00 | 0.02 | 0.02 | 61 | 1004.8 |
| 20260505123057 | 63 | 209 | 2.0 | 9.0 | 0.00 | 0.02 | 0.02 | 66 | 1004.7 |
| 20260505121618 | 62 | 214 | 3.0 | 7.0 | 0.02 | 0.02 | 0.02 | 69 | 1004.6 |
| 20260505120047 | 61 | 212 | 4.0 | 10.0 | 0.02 | 0.02 | 0.02 | 70 | 1004.6 |
| 20260505114547 | 62 | 221 | 5.0 | 12.0 | 0.02 | 0.02 | 0.02 | 69 | 1004.3 |